| time (UTC) | temp C | wind direction | speed KPH | gust KPH | rain 1hr cm | rain 24hr cm | rain mn cm | humidity % | barometer mb |
| 20260506185003 | 16 | 190 | 0.0 | 3.2 | 0.10 | 0.18 | 0.18 | 80 | 1006.1 |
| 20260506184512 | 16 | 190 | 0.0 | 6.4 | 0.10 | 0.18 | 0.18 | 80 | 1006.1 |
| 20260506184504 | 16 | 190 | 0.0 | 3.2 | 0.10 | 0.18 | 0.18 | 80 | 1006.0 |
| 20260506184003 | 16 | 191 | 0.0 | 1.6 | 0.10 | 0.15 | 0.15 | 80 | 1006.1 |
| 20260506183504 | 16 | 0 | 0.0 | 0.0 | 0.10 | 0.13 | 0.13 | 80 | 1006.3 |
| 20260506183012 | 16 | 190 | 0.0 | 1.6 | 0.10 | 0.13 | 0.13 | 80 | 1006.4 |
| 20260506183004 | 16 | 0 | 0.0 | 0.0 | 0.10 | 0.13 | 0.13 | 80 | 1006.2 |
| 20260506182004 | 16 | 191 | 0.0 | 6.4 | 0.13 | 0.13 | 0.13 | 79 | 1005.8 |
| 20260506181513 | 16 | 190 | 0.0 | 6.4 | 0.13 | 0.13 | 0.13 | 79 | 1005.8 |
| 20260506181003 | 16 | 191 | 0.0 | 4.8 | 0.10 | 0.10 | 0.10 | 78 | 1006.0 |
| 20260506180503 | 16 | 191 | 0.0 | 4.8 | 0.10 | 0.10 | 0.10 | 78 | 1006.4 |
| 20260506180018 | 16 | 190 | 0.0 | 6.4 | 0.10 | 0.10 | 0.10 | 78 | 1006.6 |
| 20260506180005 | 16 | 191 | 0.0 | 6.4 | 0.10 | 0.10 | 0.10 | 78 | 1006.3 |
| 20260506175503 | 16 | 190 | 0.0 | 6.4 | 0.10 | 0.10 | 0.10 | 77 | 1006.4 |
| 20260506174513 | 16 | 190 | 0.0 | 9.7 | 0.08 | 0.08 | 0.08 | 75 | 1006.8 |
| 20260506174504 | 16 | 191 | 0.0 | 9.7 | 0.08 | 0.08 | 0.08 | 75 | 1006.8 |
| 20260506174003 | 17 | 190 | 0.0 | 9.7 | 0.05 | 0.05 | 0.05 | 74 | 1006.8 |
| 20260506173504 | 17 | 191 | 0.0 | 8.0 | 0.03 | 0.03 | 0.03 | 73 | 1007.0 |
| 20260506173012 | 17 | 190 | 0.0 | 6.4 | 0.03 | 0.03 | 0.03 | 72 | 1007.2 |
| 20260506172503 | 18 | 191 | 0.0 | 9.7 | 0.00 | 0.00 | 0.00 | 69 | 1007.3 |
| 20260506171518 | 18 | 190 | 0.0 | 9.7 | 0.00 | 0.00 | 0.00 | 65 | 1007.5 |
| 20260506171503 | 18 | 191 | 0.0 | 6.4 | 0.00 | 0.00 | 0.00 | 65 | 1007.4 |
| 20260506171003 | 19 | 191 | 1.6 | 9.7 | 0.00 | 0.00 | 0.00 | 64 | 1007.3 |
| 20260506170504 | 19 | 191 | 0.0 | 9.7 | 0.00 | 0.00 | 0.00 | 63 | 1007.2 |
| 20260506170013 | 19 | 190 | 0.0 | 11.3 | 0.00 | 0.00 | 0.00 | 61 | 1007.2 |
| 20260506170003 | 20 | 191 | 0.0 | 11.3 | 0.00 | 0.00 | 0.00 | 61 | 1007.1 |
| 20260506164512 | 20 | 190 | 0.0 | 14.5 | 0.00 | 0.00 | 0.00 | 58 | 1007.0 |
| 20260506164504 | 20 | 191 | 1.6 | 14.5 | 0.00 | 0.00 | 0.00 | 58 | 1006.9 |
| 20260506163020 | 20 | 190 | 0.0 | 4.8 | 0.00 | 0.00 | 0.00 | 58 | 1007.1 |
| 20260506163004 | 20 | 191 | 0.0 | 4.8 | 0.00 | 0.00 | 0.00 | 58 | 1007.1 |
| 20260506162504 | 20 | 191 | 0.0 | 6.4 | 0.00 | 0.00 | 0.00 | 59 | 1007.1 |
| 20260506162004 | 20 | 190 | 1.6 | 19.3 | 0.00 | 0.00 | 0.00 | 59 | 1007.1 |
| 20260506161520 | 20 | 190 | 0.0 | 19.3 | 0.00 | 0.00 | 0.00 | 59 | 1007.3 |
| 20260506161503 | 20 | 191 | 1.6 | 19.3 | 0.00 | 0.00 | 0.00 | 59 | 1007.2 |
| 20260506161004 | 20 | 191 | 0.0 | 8.0 | 0.00 | 0.00 | 0.00 | 60 | 1007.4 |
| 20260506160503 | 20 | 191 | 0.0 | 4.8 | 0.00 | 0.00 | 0.00 | 61 | 1007.5 |
| 20260506160015 | 19 | 190 | 0.0 | 1.6 | 0.00 | 0.00 | 0.00 | 62 | 1007.7 |
| 20260506160003 | 19 | 191 | 0.0 | 1.6 | 0.00 | 0.00 | 0.00 | 62 | 1007.7 |
| 20260506155504 | 19 | 191 | 0.0 | 1.6 | 0.00 | 0.00 | 0.00 | 62 | 1007.7 |
| 20260506155004 | 19 | 191 | 0.0 | 1.6 | 0.00 | 0.00 | 0.00 | 61 | 1007.7 |
| 20260506154512 | 19 | 190 | 0.0 | 0.0 | 0.00 | 0.00 | 0.00 | 62 | 1007.8 |
| 20260506154503 | 19 | 0 | 0.0 | 0.0 | 0.00 | 0.00 | 0.00 | 62 | 1007.7 |
| 20260506154004 | 19 | 0 | 0.0 | 0.0 | 0.00 | 0.00 | 0.00 | 63 | 1007.8 |
| 20260506153503 | 19 | 191 | 0.0 | 6.4 | 0.00 | 0.00 | 0.00 | 63 | 1007.9 |
| 20260506153011 | 18 | 190 | 0.0 | 6.4 | 0.00 | 0.00 | 0.00 | 63 | 1008.1 |
| 20260506153004 | 18 | 191 | 0.0 | 6.4 | 0.00 | 0.00 | 0.00 | 63 | 1008.0 |
| 20260506152503 | 18 | 191 | 0.0 | 6.4 | 0.00 | 0.00 | 0.00 | 64 | 1008.0 |
| 20260506152004 | 18 | 191 | 0.0 | 6.4 | 0.00 | 0.00 | 0.00 | 64 | 1007.9 |
| 20260506151512 | 18 | 190 | 0.0 | 6.4 | 0.00 | 0.00 | 0.00 | 64 | 1008.0 |
| 20260506151504 | 18 | 191 | 0.0 | 6.4 | 0.00 | 0.00 | 0.00 | 64 | 1008.1 |
| 20260506151003 | 18 | 191 | 0.0 | 8.0 | 0.00 | 0.00 | 0.00 | 65 | 1008.0 |
| 20260506150504 | 18 | 191 | 0.0 | 8.0 | 0.00 | 0.00 | 0.00 | 65 | 1008.1 |
| 20260506150012 | 18 | 190 | 0.0 | 4.8 | 0.00 | 0.00 | 0.00 | 65 | 1008.3 |
| 20260506150003 | 18 | 191 | 0.0 | 9.7 | 0.00 | 0.00 | 0.00 | 65 | 1008.3 |
| 20260506145504 | 18 | 191 | 1.6 | 16.1 | 0.00 | 0.00 | 0.00 | 65 | 1008.3 |
| 20260506145003 | 18 | 191 | 1.6 | 22.5 | 0.00 | 0.00 | 0.00 | 65 | 1008.2 |
| 20260506144512 | 18 | 190 | 1.6 | 22.5 | 0.00 | 0.00 | 0.00 | 65 | 1008.3 |
| 20260506144503 | 18 | 191 | 0.0 | 22.5 | 0.00 | 0.00 | 0.00 | 66 | 1008.2 |
| 20260506143503 | 18 | 191 | 0.0 | 11.3 | 0.00 | 0.00 | 0.00 | 66 | 1008.4 |
| 20260506143012 | 18 | 190 | 0.0 | 12.9 | 0.00 | 0.00 | 0.00 | 65 | 1008.5 |
| 20260506143003 | 18 | 191 | 1.6 | 12.9 | 0.00 | 0.00 | 0.00 | 65 | 1008.4 |
| 20260506142503 | 18 | 190 | 0.0 | 12.9 | 0.00 | 0.00 | 0.00 | 66 | 1008.4 |
| 20260506141512 | 17 | 190 | 0.0 | 8.0 | 0.00 | 0.00 | 0.00 | 67 | 1008.5 |
| 20260506141503 | 18 | 191 | 1.6 | 22.5 | 0.00 | 0.00 | 0.00 | 67 | 1008.4 |
| 20260506141003 | 18 | 191 | 1.6 | 22.5 | 0.00 | 0.00 | 0.00 | 66 | 1008.5 |
| 20260506140504 | 18 | 191 | 1.6 | 14.5 | 0.00 | 0.00 | 0.00 | 66 | 1008.5 |
| 20260506140012 | 17 | 190 | 0.0 | 11.3 | 0.00 | 0.00 | 0.00 | 66 | 1008.4 |
| 20260506140003 | 18 | 191 | 0.0 | 11.3 | 0.00 | 0.00 | 0.00 | 66 | 1008.3 |
| 20260506135503 | 18 | 191 | 0.0 | 6.4 | 0.00 | 0.00 | 0.00 | 67 | 1008.1 |
| 20260506134525 | 17 | 190 | 0.0 | 6.4 | 0.00 | 0.00 | 0.00 | 68 | 1008.3 |
| 20260506134503 | 17 | 191 | 0.0 | 6.4 | 0.00 | 0.00 | 0.00 | 68 | 1008.2 |
| 20260506134003 | 17 | 191 | 0.0 | 6.4 | 0.00 | 0.00 | 0.00 | 68 | 1008.1 |
| 20260506133504 | 17 | 191 | 0.0 | 6.4 | 0.00 | 0.00 | 0.00 | 69 | 1008.1 |
| 20260506133013 | 17 | 190 | 0.0 | 3.2 | 0.00 | 0.00 | 0.00 | 68 | 1008.1 |
| 20260506133003 | 17 | 191 | 0.0 | 3.2 | 0.00 | 0.00 | 0.00 | 68 | 1008.1 |
| 20260506132504 | 17 | 191 | 0.0 | 1.6 | 0.00 | 0.00 | 0.00 | 69 | 1008.2 |
| 20260506132003 | 17 | 191 | 0.0 | 1.6 | 0.00 | 0.00 | 0.00 | 69 | 1008.3 |
| 20260506131513 | 17 | 190 | 0.0 | 1.6 | 0.00 | 0.00 | 0.00 | 70 | 1008.5 |
| 20260506131503 | 17 | 191 | 0.0 | 1.6 | 0.00 | 0.00 | 0.00 | 70 | 1008.4 |
| 20260506131004 | 17 | 191 | 0.0 | 8.0 | 0.00 | 0.00 | 0.00 | 70 | 1008.3 |
| 20260506130503 | 17 | 190 | 0.0 | 8.0 | 0.00 | 0.00 | 0.00 | 70 | 1008.2 |
| 20260506130015 | 16 | 190 | 0.0 | 6.4 | 0.00 | 0.00 | 0.00 | 70 | 1008.4 |
| 20260506130003 | 17 | 191 | 0.0 | 6.4 | 0.00 | 0.00 | 0.00 | 70 | 1008.5 |
| 20260506125503 | 17 | 191 | 0.0 | 4.8 | 0.00 | 0.00 | 0.00 | 70 | 1008.5 |
| 20260506125003 | 17 | 191 | 0.0 | 6.4 | 0.00 | 0.00 | 0.00 | 70 | 1008.6 |
| 20260506124516 | 16 | 190 | 0.0 | 6.4 | 0.00 | 0.00 | 0.00 | 70 | 1008.7 |
| 20260506124504 | 17 | 191 | 0.0 | 6.4 | 0.00 | 0.00 | 0.00 | 70 | 1008.5 |
| 20260506124004 | 17 | 191 | 0.0 | 6.4 | 0.00 | 0.00 | 0.00 | 70 | 1008.6 |
| 20260506123012 | 16 | 190 | 0.0 | 3.2 | 0.00 | 0.00 | 0.00 | 71 | 1008.8 |
| 20260506123004 | 17 | 191 | 0.0 | 3.2 | 0.00 | 0.00 | 0.00 | 71 | 1008.7 |
| 20260506122503 | 16 | 191 | 0.0 | 8.0 | 0.00 | 0.00 | 0.00 | 71 | 1008.7 |
| 20260506122004 | 16 | 191 | 0.0 | 8.0 | 0.00 | 0.00 | 0.00 | 70 | 1008.6 |
| 20260506121513 | 16 | 190 | 0.0 | 6.4 | 0.00 | 0.00 | 0.00 | 70 | 1008.6 |
| 20260506121003 | 16 | 191 | 0.0 | 9.7 | 0.00 | 0.00 | 0.00 | 71 | 1008.7 |
| 20260506120504 | 16 | 191 | 1.6 | 9.7 | 0.00 | 0.00 | 0.00 | 70 | 1008.6 |
| 20260506120014 | 16 | 190 | 0.0 | 8.0 | 0.00 | 0.00 | 0.00 | 70 | 1008.5 |
| 20260506120004 | 16 | 191 | 0.0 | 8.0 | 0.00 | 0.00 | 0.00 | 70 | 1008.4 |
| 20260506115503 | 16 | 190 | 0.0 | 9.7 | 0.00 | 0.00 | 0.00 | 71 | 1008.5 |
| 20260506115004 | 16 | 191 | 0.0 | 9.7 | 0.00 | 0.00 | 0.00 | 71 | 1008.4 |
| 20260506114521 | 16 | 190 | 0.0 | 8.0 | 0.00 | 0.00 | 0.00 | 70 | 1008.8 |
| 20260506114503 | 16 | 191 | 0.0 | 8.0 | 0.00 | 0.00 | 0.00 | 70 | 1008.7 |
| 20260506114003 | 16 | 191 | 0.0 | 8.0 | 0.00 | 0.00 | 0.00 | 71 | 1008.5 |
| 20260506113504 | 16 | 191 | 0.0 | 9.7 | 0.00 | 0.00 | 0.00 | 72 | 1008.6 |
| 20260506113012 | 16 | 190 | 0.0 | 9.7 | 0.00 | 0.00 | 0.00 | 72 | 1008.6 |
| 20260506113003 | 16 | 191 | 1.6 | 9.7 | 0.00 | 0.00 | 0.00 | 72 | 1008.5 |
| 20260506112003 | 16 | 191 | 0.0 | 8.0 | 0.00 | 0.00 | 0.00 | 73 | 1008.6 |
| 20260506111512 | 15 | 190 | 0.0 | 9.7 | 0.00 | 0.00 | 0.00 | 73 | 1009.0 |
| 20260506111503 | 16 | 191 | 0.0 | 9.7 | 0.00 | 0.00 | 0.00 | 73 | 1008.9 |
| 20260506110503 | 15 | 191 | 0.0 | 6.4 | 0.00 | 0.00 | 0.00 | 73 | 1009.0 |
| 20260506110016 | 15 | 190 | 0.0 | 6.4 | 0.00 | 0.00 | 0.00 | 73 | 1009.0 |
| 20260506110003 | 15 | 191 | 0.0 | 4.8 | 0.00 | 0.00 | 0.00 | 73 | 1009.0 |
| 20260506105503 | 15 | 190 | 0.0 | 4.8 | 0.00 | 0.00 | 0.00 | 73 | 1008.9 |
| 20260506105003 | 15 | 191 | 0.0 | 4.8 | 0.00 | 0.00 | 0.00 | 73 | 1009.0 |
| 20260506104512 | 15 | 190 | 0.0 | 8.0 | 0.00 | 0.00 | 0.00 | 73 | 1009.1 |
| 20260506103503 | 15 | 191 | 0.0 | 3.2 | 0.00 | 0.00 | 0.00 | 73 | 1008.9 |
| 20260506103020 | 15 | 190 | 0.0 | 1.6 | 0.00 | 0.00 | 0.00 | 74 | 1008.9 |
| 20260506103003 | 15 | 191 | 0.0 | 6.4 | 0.00 | 0.00 | 0.00 | 74 | 1008.8 |
| 20260506102504 | 15 | 190 | 0.0 | 6.4 | 0.00 | 0.00 | 0.00 | 74 | 1008.7 |
| 20260506102003 | 15 | 191 | 0.0 | 4.8 | 0.00 | 0.00 | 0.00 | 74 | 1008.7 |
| 20260506101511 | 15 | 190 | 0.0 | 4.8 | 0.00 | 0.00 | 0.00 | 74 | 1008.8 |
| 20260506101004 | 15 | 191 | 1.6 | 3.2 | 0.00 | 0.00 | 0.00 | 73 | 1008.6 |
| 20260506100050 | 15 | 190 | 0.0 | 6.4 | 0.00 | 0.00 | 0.00 | 73 | 1008.7 |
| 20260506094550 | 15 | 190 | 0.0 | 4.8 | 0.00 | 0.00 | 0.00 | 73 | 1008.8 |
| 20260506093053 | 15 | 190 | 0.0 | 4.8 | 0.00 | 0.00 | 0.00 | 72 | 1008.8 |
| 20260506091548 | 15 | 190 | 0.0 | 0.0 | 0.00 | 0.00 | 0.00 | 72 | 1008.8 |
| 20260506090046 | 15 | 190 | 0.0 | 0.0 | 0.00 | 0.00 | 0.00 | 71 | 1008.8 |
| 20260506084545 | 15 | 190 | 0.0 | 4.8 | 0.00 | 0.00 | 0.00 | 71 | 1009.0 |
| 20260506083055 | 15 | 190 | 0.0 | 6.4 | 0.00 | 0.00 | 0.00 | 70 | 1008.9 |
| 20260506081548 | 15 | 190 | 0.0 | 9.7 | 0.00 | 0.00 | 0.00 | 70 | 1009.0 |
| 20260506073039 | 15 | 190 | 0.0 | 1.6 | 0.00 | 0.00 | 0.00 | 68 | 1008.9 |
| 20260506071537 | 16 | 190 | 0.0 | 0.0 | 0.00 | 0.00 | 0.00 | 68 | 1008.9 |
| 20260506061537 | 16 | 190 | 0.0 | 4.8 | 0.00 | 0.00 | 0.00 | 65 | 1008.6 |
| 20260506044522 | 17 | 190 | 0.0 | 12.9 | 0.00 | 0.00 | 0.00 | 58 | 1008.8 |
| 20260506043019 | 17 | 190 | 0.0 | 4.8 | 0.00 | 0.00 | 0.00 | 57 | 1008.8 |
| 20260506041519 | 17 | 190 | 0.0 | 8.0 | 0.00 | 0.00 | 0.00 | 57 | 1008.9 |
| 20260506040021 | 17 | 190 | 0.0 | 3.2 | 0.00 | 0.00 | 0.00 | 57 | 1009.0 |
| 20260506034515 | 17 | 190 | 0.0 | 6.4 | 0.00 | 0.00 | 0.00 | 56 | 1009.2 |
| 20260506033016 | 17 | 190 | 1.6 | 14.5 | 0.00 | 0.00 | 0.00 | 55 | 1009.2 |
| 20260506031521 | 18 | 190 | 1.6 | 8.0 | 0.00 | 0.00 | 0.00 | 54 | 1009.2 |
| 20260506030015 | 18 | 190 | 0.0 | 14.5 | 0.00 | 0.00 | 0.00 | 53 | 1009.2 |
| 20260506025003 | 18 | 191 | 0.0 | 9.7 | 0.00 | 0.00 | 0.00 | 53 | 1008.9 |
| 20260506024608 | 18 | 190 | 0.0 | 9.7 | 0.00 | 0.00 | 0.00 | 53 | 1009.1 |
| 20260506024503 | 18 | 191 | 0.0 | 9.7 | 0.00 | 0.00 | 0.00 | 53 | 1008.9 |
| 20260506024004 | 18 | 191 | 0.0 | 8.0 | 0.00 | 0.00 | 0.00 | 53 | 1008.8 |
| 20260506023504 | 18 | 191 | 1.6 | 8.0 | 0.00 | 0.00 | 0.00 | 53 | 1008.9 |
| 20260506023106 | 18 | 190 | 0.0 | 9.7 | 0.00 | 0.00 | 0.00 | 53 | 1009.0 |
| 20260506022504 | 18 | 191 | 0.0 | 9.7 | 0.00 | 0.00 | 0.00 | 53 | 1008.8 |
| 20260506022004 | 18 | 191 | 0.0 | 9.7 | 0.00 | 0.00 | 0.00 | 52 | 1008.8 |
| 20260506021603 | 18 | 190 | 0.0 | 20.9 | 0.00 | 0.00 | 0.00 | 52 | 1009.0 |
| 20260506021503 | 18 | 191 | 1.6 | 20.9 | 0.00 | 0.00 | 0.00 | 52 | 1008.7 |
| 20260506021004 | 18 | 191 | 1.6 | 20.9 | 0.00 | 0.00 | 0.00 | 52 | 1008.8 |
| 20260506020503 | 18 | 191 | 1.6 | 12.9 | 0.00 | 0.00 | 0.00 | 51 | 1008.7 |
| 20260506020111 | 18 | 190 | 0.0 | 11.3 | 0.00 | 0.00 | 0.00 | 52 | 1009.0 |
| 20260506020004 | 18 | 191 | 0.0 | 11.3 | 0.00 | 0.00 | 0.00 | 52 | 1008.8 |
| 20260506015503 | 18 | 191 | 0.0 | 8.0 | 0.00 | 0.00 | 0.00 | 52 | 1008.8 |
| 20260506015004 | 18 | 191 | 0.0 | 8.0 | 0.00 | 0.00 | 0.00 | 51 | 1008.7 |
| 20260506014614 | 18 | 190 | 0.0 | 9.7 | 0.00 | 0.00 | 0.00 | 51 | 1008.9 |
| 20260506014503 | 18 | 191 | 0.0 | 8.0 | 0.00 | 0.00 | 0.00 | 50 | 1008.7 |
| 20260506013503 | 18 | 191 | 0.0 | 9.7 | 0.00 | 0.00 | 0.00 | 50 | 1008.5 |
| 20260506013105 | 18 | 190 | 0.0 | 9.7 | 0.00 | 0.00 | 0.00 | 50 | 1008.7 |
| 20260506013003 | 18 | 191 | 1.6 | 17.7 | 0.00 | 0.00 | 0.00 | 50 | 1008.4 |
| 20260506012503 | 19 | 191 | 1.6 | 17.7 | 0.00 | 0.00 | 0.00 | 50 | 1008.4 |
| 20260506012003 | 19 | 191 | 1.6 | 16.1 | 0.00 | 0.00 | 0.00 | 50 | 1008.4 |
| 20260506011630 | 18 | 190 | 0.0 | 16.1 | 0.00 | 0.00 | 0.00 | 49 | 1008.4 |
| 20260506011504 | 19 | 191 | 0.0 | 16.1 | 0.00 | 0.00 | 0.00 | 49 | 1008.2 |
| 20260506011004 | 19 | 190 | 0.0 | 4.8 | 0.00 | 0.00 | 0.00 | 49 | 1008.2 |
| 20260506010504 | 20 | 191 | 1.6 | 9.7 | 0.00 | 0.00 | 0.00 | 49 | 1008.2 |
| 20260506010103 | 19 | 190 | 1.6 | 9.7 | 0.00 | 0.00 | 0.00 | 48 | 1008.3 |
| 20260506010004 | 20 | 191 | 1.6 | 9.7 | 0.00 | 0.00 | 0.00 | 48 | 1008.1 |
| 20260506005504 | 20 | 191 | 0.0 | 9.7 | 0.00 | 0.00 | 0.00 | 49 | 1008.1 |
| 20260506004608 | 20 | 190 | 0.0 | 4.8 | 0.00 | 0.00 | 0.00 | 49 | 1008.3 |
| 20260506004504 | 20 | 191 | 0.0 | 8.0 | 0.00 | 0.00 | 0.00 | 48 | 1008.1 |
| 20260506004003 | 20 | 191 | 0.0 | 12.9 | 0.00 | 0.00 | 0.00 | 48 | 1008.1 |
| 20260506003503 | 20 | 191 | 1.6 | 12.9 | 0.00 | 0.00 | 0.00 | 48 | 1007.9 |
| 20260506003102 | 20 | 190 | 0.0 | 16.1 | 0.00 | 0.00 | 0.00 | 47 | 1008.1 |
| 20260506003003 | 20 | 191 | 0.0 | 9.7 | 0.00 | 0.00 | 0.00 | 47 | 1007.9 |
| 20260506002504 | 20 | 191 | 0.0 | 8.0 | 0.00 | 0.00 | 0.00 | 46 | 1007.8 |
| 20260506002004 | 20 | 191 | 1.6 | 16.1 | 0.00 | 0.00 | 0.00 | 46 | 1007.7 |
| 20260506001605 | 20 | 190 | 1.6 | 16.1 | 0.00 | 0.00 | 0.00 | 45 | 1007.9 |
| 20260506001503 | 20 | 191 | 1.6 | 16.1 | 0.00 | 0.00 | 0.00 | 45 | 1007.5 |
| 20260506001003 | 21 | 191 | 1.6 | 16.1 | 0.00 | 0.00 | 0.00 | 45 | 1007.5 |
| 20260506000503 | 21 | 191 | 1.6 | 16.1 | 0.00 | 0.00 | 0.00 | 45 | 1007.5 |
| 20260506000122 | 20 | 190 | 0.0 | 17.7 | 0.00 | 0.00 | 0.00 | 45 | 1007.6 |
| 20260506000004 | 21 | 191 | 1.6 | 16.1 | 0.00 | 0.00 | 0.00 | 45 | 1007.3 |
| 20260505235504 | 21 | 191 | 0.0 | 6.4 | 0.00 | 0.00 | 0.00 | 44 | 1007.2 |
| 20260505235004 | 21 | 191 | 1.6 | 16.1 | 0.00 | 0.00 | 0.00 | 43 | 1007.2 |
| 20260505234611 | 21 | 190 | 0.0 | 16.1 | 0.00 | 0.00 | 0.00 | 43 | 1007.4 |
| 20260505234503 | 21 | 191 | 1.6 | 16.1 | 0.00 | 0.00 | 0.00 | 43 | 1007.1 |
| 20260505234003 | 21 | 191 | 1.6 | 11.3 | 0.00 | 0.00 | 0.00 | 42 | 1007.0 |
| 20260505233103 | 21 | 190 | 0.0 | 3.2 | 0.00 | 0.00 | 0.00 | 41 | 1007.0 |
| 20260505233004 | 22 | 190 | 0.0 | 3.2 | 0.00 | 0.00 | 0.00 | 41 | 1006.7 |
| 20260505232504 | 22 | 191 | 1.6 | 11.3 | 0.00 | 0.00 | 0.00 | 41 | 1006.6 |
| 20260505232003 | 22 | 191 | 1.6 | 11.3 | 0.00 | 0.00 | 0.00 | 40 | 1006.6 |
| 20260505231614 | 22 | 190 | 0.0 | 11.3 | 0.00 | 0.00 | 0.00 | 40 | 1006.8 |
| 20260505231503 | 22 | 191 | 0.0 | 11.3 | 0.00 | 0.00 | 0.00 | 40 | 1006.5 |
| 20260505231004 | 22 | 191 | 1.6 | 16.1 | 0.00 | 0.00 | 0.00 | 40 | 1006.4 |
| 20260505230504 | 22 | 191 | 1.6 | 16.1 | 0.00 | 0.00 | 0.00 | 40 | 1006.4 |
| 20260505230110 | 22 | 190 | 0.0 | 9.7 | 0.00 | 0.00 | 0.00 | 39 | 1006.5 |
| 20260505225504 | 22 | 191 | 0.0 | 4.8 | 0.00 | 0.00 | 0.00 | 40 | 1006.2 |
| 20260505225003 | 23 | 191 | 0.0 | 11.3 | 0.00 | 0.00 | 0.00 | 39 | 1006.2 |
| 20260505224602 | 22 | 190 | 0.0 | 17.7 | 0.00 | 0.00 | 0.00 | 38 | 1006.4 |
| 20260505224504 | 23 | 191 | 1.6 | 11.3 | 0.00 | 0.00 | 0.00 | 38 | 1006.2 |
| 20260505224004 | 23 | 191 | 1.6 | 22.5 | 0.00 | 0.00 | 0.00 | 37 | 1006.1 |
| 20260505223504 | 23 | 191 | 1.6 | 22.5 | 0.00 | 0.00 | 0.00 | 38 | 1006.0 |
| 20260505223105 | 23 | 190 | 1.6 | 22.5 | 0.00 | 0.00 | 0.00 | 38 | 1006.2 |
| 20260505223004 | 23 | 190 | 1.6 | 14.5 | 0.00 | 0.00 | 0.00 | 37 | 1006.0 |
| 20260505222503 | 23 | 191 | 1.6 | 14.5 | 0.00 | 0.00 | 0.00 | 36 | 1005.9 |
| 20260505222003 | 24 | 191 | 1.6 | 14.5 | 0.00 | 0.00 | 0.00 | 37 | 1005.8 |
| 20260505221604 | 23 | 190 | 1.6 | 16.1 | 0.00 | 0.00 | 0.00 | 36 | 1005.9 |
| 20260505221503 | 24 | 191 | 1.6 | 16.1 | 0.00 | 0.00 | 0.00 | 36 | 1005.7 |
| 20260505221003 | 24 | 191 | 1.6 | 16.1 | 0.00 | 0.00 | 0.00 | 36 | 1005.6 |
| 20260505220503 | 24 | 191 | 1.6 | 12.9 | 0.00 | 0.00 | 0.00 | 35 | 1005.6 |
| 20260505220103 | 24 | 190 | 0.0 | 11.3 | 0.00 | 0.00 | 0.00 | 35 | 1005.7 |
| 20260505220003 | 24 | 191 | 1.6 | 11.3 | 0.00 | 0.00 | 0.00 | 35 | 1005.6 |
| 20260505215504 | 24 | 191 | 1.6 | 11.3 | 0.00 | 0.00 | 0.00 | 35 | 1005.4 |
| 20260505214603 | 24 | 190 | 1.6 | 24.1 | 0.00 | 0.00 | 0.00 | 33 | 1005.4 |
| 20260505214504 | 25 | 191 | 3.2 | 17.7 | 0.00 | 0.00 | 0.00 | 34 | 1005.3 |
| 20260505213503 | 25 | 191 | 1.6 | 25.7 | 0.00 | 0.00 | 0.00 | 34 | 1005.3 |
| 20260505213102 | 25 | 190 | 3.2 | 25.7 | 0.00 | 0.00 | 0.00 | 33 | 1005.6 |
| 20260505213003 | 25 | 191 | 1.6 | 25.7 | 0.00 | 0.00 | 0.00 | 33 | 1005.3 |
| 20260505212503 | 25 | 191 | 1.6 | 14.5 | 0.00 | 0.00 | 0.00 | 34 | 1005.4 |
| 20260505212003 | 25 | 190 | 1.6 | 22.5 | 0.00 | 0.00 | 0.00 | 32 | 1005.5 |
| 20260505211604 | 25 | 190 | 3.2 | 22.5 | 0.00 | 0.00 | 0.00 | 33 | 1005.7 |
| 20260505211503 | 25 | 191 | 1.6 | 22.5 | 0.00 | 0.00 | 0.00 | 31 | 1005.5 |
| 20260505210103 | 25 | 190 | 4.8 | 22.5 | 0.00 | 0.00 | 0.00 | 32 | 1005.6 |
| 20260505210004 | 25 | 191 | 3.2 | 22.5 | 0.00 | 0.00 | 0.00 | 31 | 1005.3 |
| 20260505205504 | 25 | 191 | 3.2 | 19.3 | 0.00 | 0.00 | 0.00 | 32 | 1005.2 |
| 20260505205004 | 26 | 191 | 3.2 | 22.5 | 0.00 | 0.00 | 0.00 | 32 | 1005.1 |
| 20260505204604 | 26 | 190 | 1.6 | 24.1 | 0.00 | 0.00 | 0.00 | 31 | 1005.4 |
| 20260505204004 | 26 | 191 | 4.8 | 22.5 | 0.00 | 0.00 | 0.00 | 30 | 1005.1 |
| 20260505203503 | 26 | 191 | 3.2 | 22.5 | 0.00 | 0.00 | 0.00 | 29 | 1005.0 |
| 20260505203117 | 26 | 190 | 0.0 | 8.0 | 0.00 | 0.00 | 0.00 | 29 | 1005.3 |
| 20260505203003 | 26 | 191 | 1.6 | 9.7 | 0.00 | 0.00 | 0.00 | 28 | 1005.0 |
| 20260505202504 | 26 | 191 | 3.2 | 24.1 | 0.00 | 0.00 | 0.00 | 28 | 1005.2 |
| 20260505201602 | 26 | 190 | 6.4 | 24.1 | 0.00 | 0.00 | 0.00 | 26 | 1005.3 |
| 20260505201503 | 27 | 191 | 4.8 | 20.9 | 0.00 | 0.00 | 0.00 | 26 | 1005.4 |
| 20260505201003 | 27 | 191 | 3.2 | 20.9 | 0.00 | 0.00 | 0.00 | 26 | 1005.3 |
| 20260505200003 | 27 | 190 | 3.2 | 17.7 | 0.00 | 0.00 | 0.00 | 25 | 1005.2 |
| 20260505195503 | 27 | 191 | 3.2 | 17.7 | 0.00 | 0.00 | 0.00 | 26 | 1005.2 |
| 20260505195004 | 27 | 191 | 3.2 | 16.1 | 0.00 | 0.00 | 0.00 | 25 | 1005.0 |
| 20260505194619 | 27 | 190 | 1.6 | 20.9 | 0.00 | 0.00 | 0.00 | 25 | 1005.3 |
| 20260505194003 | 28 | 191 | 3.2 | 16.1 | 0.00 | 0.00 | 0.00 | 25 | 1005.3 |
| 20260505193503 | 28 | 191 | 3.2 | 14.5 | 0.00 | 0.00 | 0.00 | 25 | 1005.3 |
| 20260505193107 | 27 | 190 | 0.0 | 19.3 | 0.00 | 0.00 | 0.00 | 27 | 1005.6 |
| 20260505193004 | 28 | 190 | 1.6 | 19.3 | 0.00 | 0.00 | 0.00 | 27 | 1005.3 |
| 20260505192503 | 28 | 191 | 3.2 | 19.3 | 0.00 | 0.00 | 0.00 | 26 | 1005.2 |
| 20260505192003 | 27 | 191 | 3.2 | 20.9 | 0.00 | 0.00 | 0.00 | 28 | 1005.3 |
| 20260505191609 | 27 | 190 | 3.2 | 20.9 | 0.00 | 0.00 | 0.00 | 26 | 1005.6 |
| 20260505191504 | 28 | 191 | 3.2 | 20.9 | 0.00 | 0.00 | 0.00 | 25 | 1005.5 |
| 20260505190503 | 27 | 191 | 4.8 | 20.9 | 0.00 | 0.00 | 0.00 | 26 | 1005.6 |
| 20260505190106 | 27 | 190 | 3.2 | 37.0 | 0.00 | 0.00 | 0.00 | 26 | 1005.9 |
| 20260505185503 | 28 | 191 | 3.2 | 16.1 | 0.00 | 0.00 | 0.00 | 25 | 1005.6 |